Location: Aldenham
(51.6667°N, 0.3500°W)
Time: 15:55:06
(UTC+00:00)

Cosmos 2151 Rocket - Pass Details

Date: 18 November 2025
Orbit: 611 x 636 km, 82.5° (Epoch: 12 December)

Event Time Altitude Azimuth Distance (km) Brightness Sun altitude
Rises 17:54:28 0° 176° (S) 2,920 7.1 -16.3°
Reaches altitude 10° 17:56:43 10° 172° (S) 2,018 6.2 -16.6°
Maximum altitude 18:01:06 55° 95° (E) 766 3.6 -17.3°
Enters shadow 18:05:07 12° 19° (NNE) 1,883 5.8 -17.9°
